Location: Bonningues
(50.7927°N, 2.0150°E)
Time: 16:16:27
(UTC+00:00)

SL-4 R/B - Pass Details

Date: 08 August 2020
Orbit: 428 x 665 km, 51.6° (Epoch: 18 September)

Event Time Altitude Azimuth Distance (km) Brightness Sun altitude
Rises 22:20:56 0° 254° (WSW) 2,608 5.6 -20.1°
Reaches altitude 10° 22:23:12 10° 254° (WSW) 1,684 4.6 -20.3°
Maximum altitude 22:26:59 86° 167° (SSE) 475 1.5 -20.5°
Enters shadow 22:27:12 78° 96° (E) 483 1.5 -20.5°
